Location: Newark
(21.1200°N, 73.4000°E)
Time: 04:22:38
(UTC+00:00)

Explorer 11/Cluster Stage 4 - Pass Details

Date: 24 January 2020
Orbit: 467 x 1259 km, 28.8° (Epoch: 16 February)

Event Time Altitude Azimuth Distance (km) Brightness Sun altitude
Rises 14:04:41 0° 291° (WNW) 3,782 11.0 -17.2°
Reaches altitude 10° 14:07:40 10° 293° (WNW) 2,702 10.1 -17.9°
Maximum altitude 14:14:09 77° 18° (NNE) 833 6.5 -19.3°
Enters shadow 14:16:19 37° 98° (E) 1,161 6.9 -19.8°
Drops below altitude 10° 14:19:13 10° 105° (ESE) 2,137 - -20.5°
Sets 14:21:21 0° 107° (ESE) 2,943 - -21.0°
